This is the latest recevied weather packets stored in our database for station/object ZS2JO. If no packets are shown the sender has not sent any weather packets the latest 10 day(s).
| Time | Temp. | Humidity | Pressure | Rain* | Wind** | Luminosity | Snow |
|---|---|---|---|---|---|---|---|
| 1778155671 | 13.89° C | 99% | 1017.9 hPa | 0.51 mm | - | 92 W/m² | - |
| 1778155368 | 13.33° C | 99% | 1018 hPa | 0 mm | - | 100 W/m² | - |
| 1778155063 | 13.89° C | 99% | 1017.9 hPa | 0.51 mm | - | 52 W/m² | - |
| 1778154759 | 13.89° C | 99% | 1017.6 hPa | 0.51 mm | - | 47 W/m² | - |
| 1778154455 | 13.89° C | 99% | 1017.7 hPa | 0.51 mm | - | 96 W/m² | - |
| 1778154153 | 13.89° C | 99% | 1017.7 hPa | 3.56 mm | - | 112 W/m² | - |
| 1778153850 | 13.33° C | 99% | 1017.8 hPa | 4.83 mm | - | 141 W/m² | - |
| 1778153547 | 13.33° C | 99% | 1017.9 hPa | 4.32 mm | - | 93 W/m² | - |
| 1778153244 | 13.33° C | 99% | 1017.6 hPa | 1.78 mm | - | 90 W/m² | - |
| 1778152942 | 13.33° C | 99% | 1017.8 hPa | 3.05 mm | - | 209 W/m² | - |
| 1778152639 | 12.78° C | 99% | 1017.7 hPa | 3.05 mm | - | 165 W/m² | - |
| 1778152336 | 13.33° C | 99% | 1017.7 hPa | 0 mm | - | 73 W/m² | - |
| 1778152031 | 12.78° C | 99% | 1017.6 hPa | 0 mm | - | 159 W/m² | - |
| 1778151728 | 13.89° C | 99% | 1017.8 hPa | 0 mm | - | 154 W/m² | - |
| 1778151425 | 13.33° C | 99% | 1017.5 hPa | 0.51 mm | - | 91 W/m² | - |
| 1778151121 | 13.33° C | 99% | 1017.5 hPa | 2.29 mm | - | 168 W/m² | - |
| 1778150819 | 13.89° C | 99% | 1017.5 hPa | 1.78 mm | - | 120 W/m² | - |
| 1778150515 | 13.89° C | 99% | 1017.6 hPa | 1.27 mm | - | 106 W/m² | - |
| 1778150211 | 13.89° C | 99% | 1017.7 hPa | 0.51 mm | - | 136 W/m² | - |
| 1778149908 | 13.89° C | 99% | 1017.7 hPa | 0 mm | - | 136 W/m² | - |
| 1778149604 | 13.89° C | 99% | 1017.4 hPa | 0.51 mm | - | 117 W/m² | - |
| 1778149300 | 13.89° C | 99% | 1017.4 hPa | 3.56 mm | - | 301 W/m² | - |
| 1778148996 | 13.89° C | 99% | 1017.4 hPa | 4.83 mm | - | 165 W/m² | - |
| 1778148692 | 13.89° C | 99% | 1017.5 hPa | 3.56 mm | - | 195 W/m² | - |
| 1778148390 | 14.44° C | 99% | 1017 hPa | 3.05 mm | - | 213 W/m² | - |
* Rain latest hour (hover to see other rain measurements)
** Current wind speed in m/s (hover to see current wind gust speed)